• în România
  • Lista ţărilor
  • Pe 7 zile
  • Temperatura apei
  • Hartă satelitară
  • Meteo pe hartă
  • Widget-uri
  • user-avatar
    Intrare

    Meteo pe oră la Mendoza

    Astăzi, 19 Ianuarie, Joi

    Timp Temperatura Precipitaţii Vânt Presiune Umiditate
    00:00 +28°C° 0 mm 3 m/s 697 mmHg 42%
    01:00 +27°C° 0 mm 2 m/s 697 mmHg 44%
    02:00 +27°C° 0 mm 2 m/s 697 mmHg 46%
    03:00 +26°C° 0 mm 2 m/s 697 mmHg 47%
    04:00 +26°C° 0 mm 2 m/s 697 mmHg 48%
    05:00 +27°C° 0 mm 2 m/s 697 mmHg 44%
    06:00 +28°C° 0 mm 2 m/s 697 mmHg 40%
    07:00 +29°C° 0 mm 2 m/s 698 mmHg 36%
    08:00 +31°C° 0 mm 2 m/s 698 mmHg 33%
    09:00 +34°C° 0 mm 2 m/s 698 mmHg 30%
    10:00 +35°C° 0 mm 2 m/s 698 mmHg 27%
    11:00 +36°C° 0 mm 2 m/s 698 mmHg 25%
    12:00 +38°C° 0 mm 3 m/s 698 mmHg 23%
    13:00 +39°C° 0 mm 3 m/s 698 mmHg 21%
    14:00 +39°C° 0 mm 3 m/s 698 mmHg 21%
    15:00 +39°C° 0 mm 3 m/s 698 mmHg 20%
    16:00 +39°C° 0 mm 3 m/s 697 mmHg 20%
    17:00 +38°C° 0 mm 3 m/s 698 mmHg 23%
    18:00 +36°C° 0 mm 2 m/s 698 mmHg 26%
    19:00 +35°C° 0 mm 2 m/s 698 mmHg 29%
    20:00 +34°C° 0 mm 2 m/s 698 mmHg 31%
    21:00 +33°C° 0 mm 3 m/s 699 mmHg 32%
    22:00 +33°C° 0 mm 3 m/s 699 mmHg 34%
    23:00 +31°C° 0 mm 3 m/s 699 mmHg 35%

    Mâine, 20 Ianuarie, Vineri

    Timp Temperatura Precipitaţii Vânt Presiune Umiditate
    00:00 +30°C° 0 mm 3 m/s 699 mmHg 36%
    01:00 +30°C° 0 mm 2 m/s 699 mmHg 38%
    02:00 +29°C° 0 mm 2 m/s 699 mmHg 38%
    03:00 +28°C° 0 mm 2 m/s 699 mmHg 39%
    04:00 +28°C° 0 mm 1 m/s 699 mmHg 40%
    05:00 +29°C° 0 mm 1 m/s 700 mmHg 37%
    06:00 +30°C° 0 mm 1 m/s 700 mmHg 33%
    07:00 +31°C° 0 mm 1 m/s 701 mmHg 30%
    08:00 +34°C° 0 mm 2 m/s 701 mmHg 28%
    09:00 +35°C° 0 mm 3 m/s 701 mmHg 26%
    10:00 +37°C° 0 mm 3 m/s 701 mmHg 24%
    11:00 +38°C° 0 mm 4 m/s 700 mmHg 23%
    12:00 +40°C° 0 mm 4 m/s 700 mmHg 21%
    13:00 +41°C° 0 mm 5 m/s 700 mmHg 20%
    14:00 +41°C° 0,1 mm 5 m/s 699 mmHg 20%
    15:00 +41°C° 0,1 mm 5 m/s 699 mmHg 20%
    16:00 +41°C° 0,1 mm 5 m/s 698 mmHg 20%
    17:00 +40°C° 0,1 mm 5 m/s 699 mmHg 22%
    18:00 +37°C° 0,1 mm 4 m/s 699 mmHg 25%
    19:00 +36°C° 0,1 mm 3 m/s 699 mmHg 27%
    20:00 +35°C° 0,1 mm 3 m/s 699 mmHg 29%
    21:00 +34°C° 0,1 mm 4 m/s 700 mmHg 31%
    22:00 +33°C° 0,1 mm 4 m/s 700 mmHg 33%
    23:00 +33°C° 0,1 mm 4 m/s 700 mmHg 34%

    Poimâine, 21 Ianuarie, Sâmbătă

    Timp Temperatura Precipitaţii Vânt Presiune Umiditate
    00:00 +31°C° 0,1 mm 3 m/s 700 mmHg 35%
    01:00 +30°C° 0,1 mm 3 m/s 699 mmHg 36%
    02:00 +30°C° 0 mm 3 m/s 699 mmHg 37%
    03:00 +29°C° 0 mm 3 m/s 699 mmHg 37%
    04:00 +28°C° 0 mm 3 m/s 699 mmHg 37%
    05:00 +29°C° 0 mm 3 m/s 699 mmHg 34%
    06:00 +31°C° 0 mm 3 m/s 700 mmHg 31%
    07:00 +33°C° 0 mm 3 m/s 700 mmHg 28%
    08:00 +34°C° 0 mm 4 m/s 700 mmHg 26%
    09:00 +36°C° 0 mm 4 m/s 700 mmHg 24%
    10:00 +39°C° 0 mm 5 m/s 700 mmHg 21%
    11:00 +40°C° 0 mm 5 m/s 700 mmHg 20%
    12:00 +41°C° 0 mm 5 m/s 699 mmHg 19%
    13:00 +42°C° 0 mm 6 m/s 699 mmHg 18%
    14:00 +42°C° 0,1 mm 5 m/s 698 mmHg 18%
    15:00 +42°C° 0,1 mm 5 m/s 698 mmHg 18%
    16:00 +42°C° 0,1 mm 5 m/s 697 mmHg 18%
    17:00 +40°C° 0,2 mm 4 m/s 698 mmHg 21%
    18:00 +37°C° 0,2 mm 3 m/s 698 mmHg 23%
    19:00 +36°C° 0,2 mm 3 m/s 698 mmHg 26%
    20:00 +35°C° 0,1 mm 3 m/s 698 mmHg 28%
    21:00 +34°C° 0,1 mm 3 m/s 698 mmHg 29%
    22:00 +33°C° 0,1 mm 3 m/s 698 mmHg 31%
    23:00 +31°C° 0,5 mm 3 m/s 698 mmHg 33%

    22 Ianuarie, Duminică

    Timp Temperatura Precipitaţii Vânt Presiune Umiditate
    00:00 +31°C° 0,5 mm 3 m/s 698 mmHg 34%
    01:00 +30°C° 0,5 mm 3 m/s 697 mmHg 36%
    02:00 +29°C° 0,1 mm 3 m/s 697 mmHg 37%
    03:00 +29°C° 0,1 mm 2 m/s 697 mmHg 38%
    04:00 +28°C° 0,1 mm 2 m/s 697 mmHg 39%
    05:00 +30°C° 0 mm 2 m/s 697 mmHg 35%
    06:00 +31°C° 0 mm 2 m/s 698 mmHg 31%
    07:00 +32°C° 0 mm 2 m/s 698 mmHg 28%
    08:00 +35°C° 0,1 mm 2 m/s 698 mmHg 26%
    09:00 +36°C° 0,1 mm 2 m/s 699 mmHg 25%
    10:00 +37°C° 0,1 mm 2 m/s 699 mmHg 23%
    11:00 +38°C° 0,2 mm 3 m/s 698 mmHg 22%
    12:00 +39°C° 0,2 mm 3 m/s 698 mmHg 21%
    13:00 +40°C° 0,2 mm 3 m/s 698 mmHg 20%
    14:00 +40°C° 0,3 mm 3 m/s 697 mmHg 20%
    15:00 +40°C° 0,3 mm 3 m/s 697 mmHg 21%
    16:00 +40°C° 0,3 mm 3 m/s 697 mmHg 21%
    17:00 +38°C° 0,9 mm 4 m/s 697 mmHg 26%
    18:00 +36°C° 0,9 mm 5 m/s 698 mmHg 32%
    19:00 +34°C° 0,9 mm 5 m/s 698 mmHg 37%
    20:00 +33°C° 0,6 mm 5 m/s 698 mmHg 39%
    21:00 +33°C° 0,6 mm 5 m/s 699 mmHg 41%
    22:00 +32°C° 0,6 mm 5 m/s 699 mmHg 43%
    23:00 +30°C° 0,1 mm 5 m/s 699 mmHg 44%

    23 Ianuarie, Luni

    Timp Temperatura Precipitaţii Vânt Presiune Umiditate
    00:00 +30°C° 0,1 mm 4 m/s 699 mmHg 46%
    01:00 +29°C° 0,1 mm 4 m/s 699 mmHg 47%
    02:00 +29°C° 0 mm 3 m/s 699 mmHg 48%
    03:00 +28°C° 0 mm 3 m/s 699 mmHg 50%
    04:00 +27°C° 0 mm 2 m/s 699 mmHg 52%
    05:00 +28°C° 0,1 mm 2 m/s 699 mmHg 49%
    06:00 +29°C° 0,1 mm 2 m/s 699 mmHg 46%
    07:00 +29°C° 0,1 mm 2 m/s 700 mmHg 43%
    08:00 +31°C° 0 mm 2 m/s 700 mmHg 39%
    09:00 +32°C° 0 mm 2 m/s 699 mmHg 35%
    10:00 +35°C° 0 mm 2 m/s 699 mmHg 32%
    11:00 +36°C° 0,1 mm 3 m/s 699 mmHg 30%
    12:00 +37°C° 0,1 mm 3 m/s 699 mmHg 28%
    13:00 +38°C° 0,1 mm 4 m/s 698 mmHg 26%
    14:00 +38°C° 0,4 mm 4 m/s 698 mmHg 26%
    15:00 +40°C° 0,4 mm 4 m/s 698 mmHg 26%
    16:00 +40°C° 0,4 mm 4 m/s 697 mmHg 26%
    17:00 +37°C° 0,6 mm 3 m/s 697 mmHg 28%
    18:00 +36°C° 0,6 mm 3 m/s 698 mmHg 31%
    19:00 +35°C° 0,6 mm 2 m/s 698 mmHg 33%
    20:00 +34°C° 0,4 mm 2 m/s 698 mmHg 35%
    21:00 +32°C° 0,4 mm 2 m/s 698 mmHg 37%
    22:00 +31°C° 0,4 mm 2 m/s 699 mmHg 39%
    23:00 +31°C° 0,1 mm 2 m/s 698 mmHg 40%

    24 Ianuarie, Marţi

    Timp Temperatura Precipitaţii Vânt Presiune Umiditate
    00:00 +30°C° 0,1 mm 2 m/s 698 mmHg 41%
    01:00 +30°C° 0,1 mm 2 m/s 698 mmHg 42%
    02:00 +29°C° 0 mm 2 m/s 698 mmHg 44%
    03:00 +29°C° 0 mm 3 m/s 698 mmHg 45%
    04:00 +28°C° 0 mm 3 m/s 698 mmHg 47%
    05:00 +29°C° 0 mm 3 m/s 699 mmHg 44%
    06:00 +30°C° 0 mm 3 m/s 700 mmHg 41%
    07:00 +32°C° 0 mm 4 m/s 700 mmHg 38%
    08:00 +33°C° 0 mm 4 m/s 700 mmHg 36%
    09:00 +34°C° 0 mm 4 m/s 700 mmHg 34%
    10:00 +36°C° 0 mm 4 m/s 700 mmHg 32%
    11:00 +37°C° 0 mm 3 m/s 700 mmHg 31%
    12:00 +37°C° 0 mm 3 m/s 699 mmHg 29%
    13:00 +38°C° 0 mm 3 m/s 699 mmHg 28%
    14:00 +38°C° 0,1 mm 3 m/s 698 mmHg 27%
    15:00 +38°C° 0,1 mm 3 m/s 698 mmHg 27%
    16:00 +39°C° 0,1 mm 3 m/s 698 mmHg 26%
    17:00 +37°C° 0,1 mm 2 m/s 698 mmHg 28%
    18:00 +36°C° 0,1 mm 2 m/s 698 mmHg 31%
    19:00 +35°C° 0,1 mm 2 m/s 698 mmHg 33%
    20:00 +34°C° 0 mm 2 m/s 699 mmHg 34%
    21:00 +34°C° 0 mm 3 m/s 699 mmHg 35%
    22:00 +33°C° 0 mm 3 m/s 700 mmHg 36%
    23:00 +33°C° 0 mm 3 m/s 699 mmHg 36%
    Arată mai mult